Location: Martley
(52.2333°N, 2.3667°W)
Time: 04:35:32
(UTC+00:00)

Cosmos 2263 Rocket - Visible Passes

Search period start: 02 April 2020 00:00
Search period end: 12 April 2020 00:00
Orbit: 822 x 850 km, 71.0° (Epoch: 01 April)

Date Brightness Start Highest point End Pass type
(mag) Time Alt. Az. Time Alt. Az. Time Alt. Az.
04 Apr 3.9 04:57:35 10° S 05:02:40 35° ESE 05:07:48 10° NE visible
05 Apr 4.0 04:40:57 10° SSE 04:45:57 33° ESE 04:50:59 10° NE visible
06 Apr 4.0 04:24:20 10° SSE 04:29:14 31° ESE 04:34:09 10° NE visible
07 Apr 4.1 04:07:44 10° SSE 04:12:30 29° ESE 04:17:19 10° NE visible
08 Apr 4.1 03:51:09 10° SSE 03:55:48 27° ESE 04:00:29 10° NE visible
09 Apr 4.2 03:34:34 10° SSE 03:39:05 25° ESE 03:43:38 10° NE visible
10 Apr 4.2 03:18:00 10° SSE 03:22:23 23° ESE 03:26:46 10° NE visible
11 Apr 4.3 03:01:28 10° SSE 03:05:40 22° E 03:09:54 10° NE visible
